Temperature
16 15 15 15 15 15 15 15 15 15 15 14 14 14 13 13 12 12 12 12 12 12 12 12 11 11 11 11 10 10 9 9 8 8 8 9 9 9 9 9 9 9 9
15 14 14 14 14 14 14 14 14 14 14 14 14 13 13 12 12 12 12 12 12 11 11 11 11 11 10 10 9 8 8 8 7 6 6 6 6 8 7 7 7 7 6
15 14 14 14 14 14 14 15 15 14 14 14 14 13 13 12 12 11 11 11 11 11 11 11 10 10 9 8 8 7 7 6 6 6 4 4 4 4 4 5 5 5 5
15 14 13 13 14 14 14 14 14 14 13 13 13 13 12 12 11 11 11 11 11 11 10 10 9 9 8 7 7 6 6 5 5 5 5 4 3 3 3 3 3 3 3
14 13 13 13 14 14 14 14 13 13 13 12 12 12 12 11 11 11 10 10 10 10 10 9 9 8 7 6 6 6 5 5 4 4 3 3 3 2 1 1 1 1 2
13 12 12 13 13 13 13 13 13 13 12 12 11 12 11 11 11 10 10 10 9 9 9 8 8 7 6 6 5 5 4 4 3 3 2 1 1 0 0 0 0 0 0
13 12 11 12 12 12 12 12 12 12 11 11 11 11 11 10 10 10 9 9 9 8 8 7 7 6 5 5 4 4 4 3 3 2 1 0 0 -0 -1 -1 -1 -1 -1
12 11 11 11 11 11 11 11 12 11 11 11 11 10 10 10 9 9 9 8 8 8 7 6 5 5 5 4 4 4 3 2 1 1 0 -0 -1 -1 -1 -1 -2 -2 -2
12 11 11 11 11 11 11 11 11 11 11 10 10 10 9 9 9 8 8 8 7 6 6 5 4 4 4 3 3 2 2 1 0 -0 -1 -1 -2 -2 -2 -2 -2 -3 -3
12 11 10 10 10 10 10 10 10 10 10 10 9 9 8 8 8 7 7 6 6 5 4 4 4 3 3 3 2 1 1 -0 -1 -1 -2 -2 -2 -3 -3 -3 -3 -3 -4
12 11 10 10 9 9 9 10 10 10 9 9 8 8 7 7 7 7 6 5 4 4 3 3 3 3 2 2 1 0 -0 -1 -2 -2 -3 -3 -3 -4 -4 -4 -4 -4 -5
12 11 10 9 9 9 9 9 9 9 8 8 7 7 7 6 6 5 5 4 3 3 3 3 2 2 2 1 -0 -1 -2 -3 -3 -3 -4 -4 -5 -5 -5 -5 -5 -5 -5
12 11 10 9 9 9 9 8 8 8 8 7 7 6 6 5 5 4 4 3 3 2 2 2 2 1 1 -0 -2 -3 -3 -4 -4 -5 -6 -6 -6 -6 -5 -5 -6 -6 -6
12 10 9 9 8 8 8 8 7 7 7 6 6 6 5 4 4 3 3 2 2 2 2 1 1 0 -1 -2 -3 -4 -4 -5 -5 -6 -6 -7 -7 -6 -6 -6 -6 -6 -6
12 10 9 8 8 7 7 7 7 6 6 6 5 5 4 4 3 3 2 2 1 1 1 1 -0 -1 -2 -3 -4 -5 -5 -6 -6 -6 -7 -7 -7 -7 -6 -6 -6 -7 -7
11 10 9 8 7 7 7 6 6 5 5 5 5 4 3 3 2 2 1 1 1 1 0 -0 -1 -2 -3 -4 -5 -5 -6 -6 -7 -7 -7 -7 -7 -7 -7 -7 -7 -7 -7
11 10 9 8 7 7 6 5 5 5 4 4 4 3 3 2 2 1 1 0 0 -0 -1 -1 -2 -3 -4 -5 -5 -6 -6 -7 -7 -8 -8 -8 -8 -8 -8 -8 -7 -7 -8
11 10 9 8 7 6 5 5 4 4 4 4 3 3 2 1 1 0 0 -0 -0 -1 -1 -2 -3 -4 -4 -5 -6 -6 -7 -7 -8 -8 -8 -8 -8 -8 -8 -8 -8 -8 -8
11 10 9 8 6 5 5 4 4 3 3 3 2 2 1 1 0 0 -0 -1 -1 -2 -2 -3 -4 -5 -5 -6 -6 -7 -7 -8 -8 -8 -8 -8 -8 -8 -8 -8 -8 -9 -9
10 9 8 7 6 5 4 3 3 3 3 2 1 1 0 -0 -0 -0 -1 -1 -2 -2 -3 -3 -4 -5 -6 -6 -7 -7 -7 -8 -8 -8 -9 -9 -9 -8 -8 -8 -9 -9 -9
8 8 7 6 5 4 3 3 3 2 2 1 1 0 -0 -0 -1 -1 -1 -2 -3 -3 -3 -4 -5 -6 -7 -7 -7 -8 -8 -8 -8 -9 -9 -9 -9 -9 -9 -9 -9 -10 -9
7 6 6 5 4 3 3 3 2 2 1 0 0 -0 -0 -1 -1 -2 -2 -3 -3 -4 -5 -5 -6 -7 -8 -8 -8 -9 -8 -9 -9 -9 -9 -9 -9 -9 -9 -10 -10 -10 -10
6 6 5 4 3 2 2 2 1 1 0 -0 -0 -0 -1 -1 -2 -3 -3 -3 -4 -5 -6 -7 -7 -8 -8 -9 -9 -9 -9 -9 -9 -10 -10 -9 -9 -10 -10 -11 -11 -11 -11
6 5 4 3 3 2 1 1 0 -0 -0 -0 -0 -1 -1 -2 -2 -3 -3 -4 -5 -6 -7 -7 -8 -8 -9 -9 -9 -9 -9 -10 -10 -10 -10 -10 -10 -11 -11 -11 -12 -12 -12
4 4 3 2 2 1 1 0 -0 -0 -0 -1 -1 -2 -2 -2 -3 -3 -4 -5 -6 -7 -8 -8 -8 -9 -9 -9 -9 -9 -9 -10 -10 -10 -10 -11 -11 -12 -12 -12 -12 -12 -12
4 3 2 1 1 0 -0 -0 -0 -1 -1 -1 -2 -2 -3 -3 -3 -4 -5 -5 -7 -8 -8 -8 -9 -9 -9 -9 -9 -10 -10 -10 -10 -10 -11 -12 -12 -12 -12 -12 -12 -12 -12
Wind_Speed
10 7 6 7 6 7 8 9 10 10 10 9 8 8 7 7 7 7 11 13 13 13 9 6 7 7 6 7 7 6 7 6 6 5 7 8 7 5 10 12 11 10 9
10 8 7 8 8 8 8 9 10 10 10 9 8 7 8 7 6 6 8 12 12 12 9 7 7 7 6 8 7 6 5 5 6 5 6 5 6 5 12 9 7 10 8
12 10 9 9 9 9 9 10 11 12 12 12 10 9 7 6 5 6 6 8 11 11 10 8 6 7 6 6 7 7 7 5 6 5 4 4 5 9 6 7 10 8 10
13 11 10 10 9 8 8 10 10 10 10 9 8 9 7 6 5 4 5 6 9 10 10 8 7 6 6 6 7 7 6 6 6 5 4 5 8 6 7 6 6 10 11
14 12 11 10 9 8 8 9 10 10 10 10 9 9 8 6 5 5 6 6 6 8 9 8 6 6 5 6 6 6 6 4 5 5 6 7 7 8 11 13 9 8 7
14 13 11 10 9 8 8 9 10 11 10 10 10 9 9 8 8 7 6 5 5 6 7 6 5 5 4 5 5 5 7 6 6 5 6 7 7 8 10 16 17 14 8
15 14 12 10 9 9 8 8 10 10 10 10 10 10 10 9 8 6 6 5 4 4 6 6 5 5 4 5 5 6 7 7 7 7 6 6 7 8 10 13 17 19 13
14 13 12 11 10 9 9 9 10 10 10 9 9 8 8 6 5 6 5 5 4 4 5 5 5 5 5 6 6 6 7 7 8 9 9 8 8 8 9 10 14 20 19
15 14 12 11 11 10 9 9 10 10 9 9 9 8 8 7 6 6 6 4 4 4 5 5 6 6 6 7 7 6 8 8 8 8 9 8 8 8 8 8 9 13 21
15 14 13 12 10 9 10 9 9 9 9 8 7 7 7 6 6 6 6 5 5 5 5 6 6 7 7 7 7 7 8 9 9 8 10 10 9 8 8 8 8 8 13
16 14 13 12 11 10 9 9 9 9 9 8 7 8 6 5 5 5 5 5 5 5 6 6 7 7 8 8 7 8 10 10 10 11 13 13 13 10 8 8 7 8 9
14 14 13 12 11 10 10 9 8 8 8 7 8 7 5 5 5 5 5 5 5 5 6 6 7 8 9 8 8 10 11 9 12 14 14 15 14 13 11 8 9 9 10
14 13 13 12 11 10 10 9 9 9 8 7 7 6 6 5 5 5 5 5 5 6 6 7 7 8 9 9 9 10 9 9 12 14 15 16 16 15 10 10 10 10 14
14 13 12 11 11 10 10 9 9 9 8 7 7 6 5 4 4 4 4 5 6 6 7 7 8 8 9 9 10 9 8 10 11 13 15 16 16 15 13 13 12 12 14
15 14 13 11 11 10 10 9 9 9 8 8 7 6 4 3 3 4 5 6 6 8 8 8 8 8 9 10 11 10 11 10 11 13 15 16 20 24 20 18 14 15 15
13 13 13 12 12 11 10 10 9 8 8 8 7 5 2 2 3 4 5 6 7 8 8 8 9 9 11 19 24 19 10 9 12 15 15 16 17 21 27 30 29 26 21
12 12 12 11 11 11 10 10 9 8 8 7 6 4 2 2 3 5 6 7 7 7 8 9 9 9 12 23 24 23 14 10 11 14 15 17 18 23 16 24 28 23 28
12 11 11 11 11 10 10 10 9 8 7 6 5 3 1 2 4 5 7 7 7 8 8 9 10 10 14 23 24 24 13 9 11 12 14 16 15 19 23 20 19 17 17
10 10 11 12 11 11 11 11 9 8 7 5 4 3 2 3 5 6 7 7 7 8 9 9 10 10 12 20 23 23 10 9 11 13 15 18 18 27 32 23 21 21 17
11 12 12 13 12 11 11 10 8 7 6 5 3 2 2 4 6 7 7 6 7 8 9 10 10 10 10 19 23 24 8 11 12 13 14 21 25 30 33 23 20 20 18
12 12 12 11 10 10 10 9 8 7 6 4 2 1 3 4 6 5 6 7 8 9 9 10 9 9 12 19 23 25 13 12 15 15 15 15 29 33 34 29 16 22 25
11 11 11 10 9 9 9 9 8 7 5 3 1 3 4 4 5 6 7 7 8 8 9 9 9 7 10 16 21 26 24 23 17 16 15 17 32 34 32 24 25 31 26
9 10 11 10 8 7 8 9 7 6 4 1 2 3 5 5 5 6 7 7 7 7 7 8 9 9 8 12 24 25 27 29 19 16 26 30 32 29 19 24 29 24 14
9 9 10 9 8 7 8 8 7 5 2 1 3 4 5 6 6 5 6 6 6 7 7 8 10 10 9 9 10 11 15 21 19 16 21 26 25 21 22 21 17 13 13
7 8 8 9 8 8 7 7 6 4 2 3 4 5 5 5 6 6 6 8 7 10 12 8 8 10 11 15 26 22 16 16 18 20 11 9 12 12 13 13 13 13 14
7 8 9 9 8 8 7 6 5 4 3 3 4 4 4 5 6 7 8 12 14 19 21 20 19 14 19 27 28 29 30 31 29 19 13 13 13 14 15 16 16 15 15
Wind_Direction
116 125 130 113 95 87 96 100 103 102 102 104 102 97 91 81 70 63 60 56 52 49 43 34 35 23 23 24 13 5 350 347 339 330 320 298 306 348 1 341 331 329 335
126 131 120 99 92 88 87 92 97 98 97 98 98 102 102 93 86 73 62 60 53 47 46 36 32 22 22 22 9 8 356 345 349 343 328 328 319 358 335 305 322 316 321
140 142 117 96 83 77 80 90 91 96 100 104 107 108 100 96 86 83 77 66 60 49 43 39 33 24 26 17 3 12 3 343 336 349 340 333 308 314 273 329 308 313 327
139 135 118 101 90 82 80 87 95 102 112 119 115 112 106 103 99 98 98 89 72 58 41 37 35 29 27 19 2 4 346 345 330 328 336 303 300 305 303 298 299 311 308
137 129 120 114 102 90 85 85 84 81 79 81 87 96 97 99 92 81 72 82 75 63 42 33 29 31 26 9 356 348 335 328 319 317 315 308 305 298 305 304 298 296 292
133 124 118 113 105 96 91 90 88 79 75 77 77 84 90 87 80 70 58 59 65 55 38 28 20 23 16 354 341 338 326 314 309 307 304 300 301 306 304 303 306 304 297
139 136 135 131 126 119 112 106 100 91 83 80 77 75 79 78 70 66 59 53 48 41 25 19 7 5 354 341 340 333 317 309 309 303 296 294 294 296 297 299 303 304 302
145 146 145 137 135 134 128 117 109 102 94 89 86 79 76 78 71 63 60 57 51 35 15 7 358 353 347 341 335 323 314 312 307 306 302 298 292 290 292 297 305 306 305
151 150 146 140 140 140 131 123 116 109 105 100 93 84 79 77 72 66 56 46 34 23 10 359 353 343 336 332 329 318 311 307 302 299 295 293 288 286 285 290 296 300 305
154 152 148 143 142 136 128 127 121 116 105 96 95 94 83 77 75 67 51 32 20 13 357 351 343 333 327 325 323 316 310 307 304 302 299 297 297 293 289 288 286 288 296
158 154 149 143 135 128 130 126 121 115 112 112 102 92 79 64 67 64 45 20 7 359 349 340 332 326 321 323 322 319 313 307 310 312 310 306 304 301 298 293 291 288 291
153 150 144 138 137 139 138 134 131 122 115 109 102 97 88 66 57 50 31 12 358 346 336 330 325 320 320 319 316 315 312 314 321 316 311 309 310 305 301 296 296 297 295
150 146 144 146 149 150 146 143 133 125 119 112 109 101 83 63 47 31 13 356 341 329 323 321 317 312 310 308 307 306 310 323 317 311 310 309 307 303 300 300 298 296 296
155 153 153 155 155 153 148 142 131 124 119 110 101 91 78 62 35 13 352 337 325 317 312 307 301 300 302 303 301 302 316 309 307 308 307 305 303 302 303 301 293 295 297
162 160 159 159 155 149 145 137 128 124 124 115 105 92 73 55 18 355 336 320 311 307 299 297 298 299 304 305 309 314 312 310 310 307 304 302 304 305 306 305 305 305 303
163 158 158 156 153 148 142 132 128 127 123 116 111 104 69 23 0 336 314 303 298 295 298 300 302 304 310 314 316 316 310 308 309 308 306 303 302 305 310 309 307 306 308
157 158 158 153 147 141 136 133 126 122 116 113 112 109 61 359 338 319 308 302 301 304 308 306 307 305 308 315 316 318 319 308 304 304 306 309 311 313 305 303 308 310 308
148 148 143 137 132 127 125 119 118 118 118 122 128 123 57 336 322 309 303 305 309 310 308 307 304 303 308 317 319 319 318 299 297 302 305 306 307 307 308 309 311 307 304
122 125 125 123 121 121 119 117 119 123 128 128 118 89 25 330 311 304 306 310 312 311 306 302 303 303 308 318 319 318 306 302 301 303 306 308 306 306 312 316 311 309 307
99 109 113 115 115 117 121 124 130 133 129 116 97 52 327 301 297 301 309 312 313 305 304 305 304 304 308 318 321 321 311 312 311 309 307 309 311 312 315 315 313 313 312
98 105 110 114 119 124 127 127 125 119 110 102 83 310 296 296 298 304 305 302 298 298 303 306 309 311 316 324 326 324 323 318 317 316 315 313 314 315 317 319 317 313 317
105 110 113 114 117 123 122 118 114 111 110 116 267 289 297 303 306 300 295 295 299 304 308 313 314 314 322 325 323 323 323 323 319 316 313 312 315 319 322 324 319 320 325
115 116 119 117 111 107 112 115 114 113 114 114 305 311 315 306 300 299 300 303 303 305 310 314 316 318 317 319 320 320 320 321 320 313 313 316 320 325 326 321 322 325 321
124 125 124 122 114 102 96 108 114 115 113 358 329 322 313 306 307 306 303 304 307 309 308 309 311 311 310 308 309 311 316 321 319 312 314 321 323 324 323 322 320 317 313
126 128 130 128 125 119 112 112 116 108 59 360 334 320 314 316 314 308 303 310 301 304 313 306 304 310 313 313 320 323 322 322 317 323 324 323 323 323 321 321 319 320 320
124 120 119 123 126 128 125 120 109 83 37 346 325 319 321 319 314 311 312 313 315 318 321 321 318 317 316 319 323 325 325 325 328 332 328 324 322 321 322 322 321 321 321
Height
1462 1465 1467 1467 1468 1469 1469 1470 1471 1473 1475 1477 1480 1482 1484 1487 1488 1490 1490 1491 1491 1490 1490 1489 1488 1486 1484 1481 1479 1476 1474 1471 1466 1462 1457 1455 1455 1453 1451 1449 1447 1444 1442
1460 1464 1466 1467 1468 1469 1470 1471 1472 1474 1476 1477 1480 1482 1484 1487 1489 1490 1491 1491 1490 1490 1489 1487 1486 1484 1481 1479 1476 1473 1470 1468 1465 1461 1455 1451 1448 1447 1447 1444 1441 1438 1435
1457 1463 1465 1466 1467 1469 1470 1471 1473 1475 1477 1479 1481 1483 1485 1487 1489 1490 1490 1490 1490 1489 1487 1485 1483 1481 1478 1476 1473 1471 1468 1465 1464 1462 1460 1455 1448 1441 1437 1437 1434 1432 1429
1455 1460 1463 1465 1467 1469 1471 1473 1475 1477 1479 1480 1482 1484 1485 1487 1488 1489 1489 1489 1488 1487 1485 1483 1480 1478 1476 1474 1471 1469 1467 1464 1461 1460 1458 1456 1451 1443 1432 1429 1427 1425 1421
1453 1458 1461 1464 1467 1469 1471 1473 1475 1477 1479 1481 1483 1484 1486 1487 1488 1488 1488 1487 1485 1484 1482 1480 1478 1475 1473 1471 1469 1467 1465 1462 1459 1456 1453 1449 1446 1441 1433 1421 1416 1415 1413
1451 1456 1460 1463 1466 1469 1471 1474 1476 1477 1480 1481 1483 1484 1485 1486 1487 1486 1486 1484 1483 1481 1480 1477 1475 1473 1471 1468 1466 1464 1461 1459 1455 1452 1449 1445 1441 1436 1431 1421 1410 1405 1403
1448 1453 1457 1461 1465 1468 1472 1474 1476 1477 1480 1481 1483 1483 1484 1485 1485 1484 1484 1483 1481 1479 1477 1475 1472 1470 1468 1466 1463 1461 1458 1454 1451 1448 1444 1440 1437 1433 1427 1420 1408 1398 1392
1446 1451 1456 1460 1464 1468 1471 1474 1476 1477 1479 1481 1482 1483 1483 1484 1483 1483 1482 1481 1480 1477 1475 1472 1470 1468 1465 1463 1460 1457 1453 1450 1446 1442 1439 1435 1431 1427 1423 1417 1408 1395 1383
1444 1449 1455 1459 1463 1467 1470 1473 1475 1476 1478 1479 1481 1481 1482 1482 1482 1481 1481 1479 1477 1475 1472 1470 1467 1465 1462 1459 1456 1452 1448 1445 1441 1437 1433 1428 1424 1420 1416 1412 1407 1399 1383
1442 1448 1453 1457 1462 1466 1469 1472 1474 1475 1476 1478 1479 1480 1480 1480 1480 1480 1478 1477 1474 1472 1469 1467 1465 1462 1459 1455 1451 1447 1443 1439 1435 1430 1426 1421 1417 1412 1408 1404 1400 1395 1387
1439 1445 1451 1456 1460 1464 1467 1470 1471 1473 1475 1476 1477 1478 1479 1479 1478 1477 1476 1474 1471 1469 1466 1464 1461 1458 1454 1450 1446 1441 1437 1432 1428 1424 1419 1414 1409 1404 1400 1396 1391 1387 1382
1438 1443 1449 1453 1458 1462 1465 1467 1469 1471 1473 1474 1475 1476 1477 1477 1476 1475 1473 1471 1469 1466 1464 1461 1458 1454 1450 1445 1440 1435 1431 1427 1422 1417 1412 1406 1402 1397 1393 1388 1383 1378 1373
1437 1442 1447 1451 1455 1459 1462 1465 1467 1469 1470 1472 1473 1474 1474 1474 1473 1472 1470 1468 1466 1463 1460 1457 1453 1449 1444 1439 1435 1430 1426 1421 1416 1410 1405 1400 1395 1390 1386 1381 1376 1370 1365
1434 1439 1444 1448 1452 1456 1459 1462 1464 1466 1468 1469 1471 1472 1472 1471 1470 1469 1467 1465 1463 1460 1457 1453 1449 1444 1439 1434 1430 1425 1420 1415 1409 1404 1399 1394 1390 1385 1380 1374 1369 1363 1357
1432 1436 1440 1445 1449 1453 1456 1459 1461 1463 1465 1467 1468 1469 1469 1469 1467 1466 1464 1462 1459 1456 1452 1448 1443 1439 1434 1430 1426 1421 1415 1409 1402 1397 1393 1389 1385 1380 1375 1370 1363 1357 1350
1429 1434 1438 1443 1446 1450 1453 1456 1458 1461 1463 1465 1466 1467 1466 1465 1464 1463 1461 1458 1455 1451 1447 1443 1438 1434 1430 1426 1421 1416 1409 1403 1397 1391 1386 1382 1378 1374 1369 1363 1358 1352 1345
1426 1431 1436 1440 1444 1447 1450 1453 1456 1459 1461 1462 1463 1464 1463 1462 1461 1460 1457 1454 1451 1447 1442 1438 1433 1429 1424 1420 1415 1410 1404 1398 1392 1387 1381 1376 1372 1367 1361 1354 1348 1343 1338
1424 1429 1434 1438 1442 1445 1448 1451 1454 1457 1459 1460 1461 1461 1461 1460 1458 1456 1454 1450 1446 1442 1438 1433 1428 1423 1419 1415 1410 1404 1398 1392 1387 1382 1377 1371 1365 1360 1354 1346 1339 1333 1327
1423 1428 1432 1436 1439 1443 1446 1449 1453 1456 1457 1458 1459 1459 1458 1457 1455 1453 1450 1446 1442 1438 1433 1428 1423 1418 1413 1409 1404 1399 1393 1387 1381 1376 1371 1366 1359 1353 1347 1340 1331 1323 1316
1423 1427 1431 1434 1438 1441 1445 1449 1452 1454 1456 1456 1456 1456 1455 1454 1452 1449 1446 1442 1438 1433 1428 1423 1418 1414 1408 1404 1400 1395 1389 1382 1375 1369 1364 1359 1353 1347 1340 1333 1324 1315 1307
1424 1427 1430 1434 1437 1441 1445 1448 1451 1453 1454 1454 1454 1453 1452 1451 1449 1446 1442 1438 1433 1428 1423 1418 1413 1409 1404 1399 1395 1390 1385 1378 1371 1364 1357 1351 1346 1340 1333 1326 1318 1311 1303
1425 1428 1431 1434 1438 1442 1445 1447 1450 1451 1452 1452 1451 1451 1450 1448 1445 1441 1437 1433 1428 1423 1418 1412 1407 1404 1400 1395 1389 1385 1380 1375 1367 1359 1352 1345 1339 1333 1326 1319 1312 1305 1297
1426 1429 1432 1435 1439 1442 1445 1447 1448 1449 1449 1449 1449 1448 1447 1444 1441 1437 1433 1429 1424 1419 1414 1409 1403 1398 1394 1389 1385 1380 1374 1368 1362 1354 1347 1340 1333 1326 1319 1313 1307 1300 1291
1428 1430 1433 1436 1439 1442 1444 1445 1447 1447 1447 1447 1446 1445 1443 1440 1437 1434 1430 1425 1420 1415 1410 1405 1400 1395 1389 1385 1379 1374 1368 1361 1355 1347 1340 1334 1327 1321 1314 1307 1300 1294 1288
1428 1431 1433 1436 1439 1441 1443 1444 1445 1445 1445 1445 1443 1442 1439 1436 1433 1430 1426 1421 1417 1414 1409 1404 1399 1393 1387 1382 1378 1372 1364 1357 1350 1342 1335 1328 1322 1315 1308 1302 1295 1289 1282
1428 1431 1433 1436 1438 1440 1441 1443 1443 1443 1443 1442 1440 1438 1436 1433 1429 1424 1420 1417 1414 1410 1407 1402 1398 1392 1387 1380 1374 1367 1360 1353 1346 1339 1332 1325 1319 1312 1306 1299 1291 1285 1278